Theta_e
337 338 338 337 337 336 336 336 336 337 337 336 338 337 333 334 340 343 346 349 351 351 351 350 349 348 347 347 348 348 347 347 346 346 346 346 345 345 344 343 343 342 342 342 343 343 343 343 343 343 343 343 343 343 343 342 342 342 341 341 340 339 338 338 337 335 332 331 330 328 327 327 325 325 325 324 324 324 322 321 321 321 321 320 318
338 339 338 337 337 336 335 335 335 336 336 336 339 339 336 334 337 340 341 344 349 351 351 351 350 348 349 349 348 349 348 347 347 346 346 346 346 345 345 344 343 342 342 341 341 342 343 344 344 343 344 344 343 343 343 342 342 341 340 340 340 340 338 337 337 335 333 332 330 329 327 327 326 325 325 324 324 324 323 322 321 321 321 320 319
333 338 340 339 337 336 335 335 335 336 337 337 338 338 336 335 334 336 339 341 346 351 352 351 350 349 349 349 349 349 348 347 347 347 346 346 346 346 345 344 344 343 342 341 340 341 342 343 344 344 344 344 344 344 343 343 342 342 341 339 340 340 338 337 337 336 334 332 331 330 327 326 326 325 325 325 324 324 324 322 322 321 321 320 320
324 329 337 340 340 338 336 335 336 336 336 337 337 335 335 337 335 334 339 340 344 350 351 351 351 349 349 349 349 349 348 348 348 347 346 346 346 346 345 345 344 343 342 341 340 340 341 343 344 344 344 345 344 344 343 343 342 342 340 339 339 340 338 337 337 336 335 333 332 330 328 327 326 326 325 325 325 324 324 323 322 321 321 320 320
322 321 327 336 341 342 340 337 336 336 336 335 335 334 334 336 336 335 338 341 343 348 350 351 351 350 350 349 349 349 349 348 348 347 347 347 347 346 345 345 344 344 343 341 340 340 340 342 343 344 344 344 344 344 343 343 342 341 340 339 339 339 339 338 337 336 335 333 332 331 329 328 327 326 325 325 325 324 324 323 322 321 321 320 320
324 322 321 326 333 339 342 342 340 338 338 336 336 336 334 332 334 336 337 340 341 345 349 350 351 351 350 349 349 349 348 347 347 347 347 347 347 346 345 345 344 344 343 342 341 341 340 341 343 344 344 344 344 343 343 343 343 342 340 339 339 339 339 338 337 336 335 333 332 331 329 328 327 326 326 325 325 324 323 323 322 321 321 321 320
324 324 323 323 323 329 337 342 343 342 341 340 339 339 334 329 330 333 336 339 339 342 347 349 349 349 350 349 349 349 348 347 347 347 348 348 347 346 346 345 344 344 343 342 341 341 341 341 342 343 344 345 344 344 344 344 344 342 340 340 339 338 338 337 337 336 334 332 332 332 330 329 327 326 326 325 324 324 323 323 322 321 321 321 320
323 323 324 324 323 323 326 334 340 342 342 342 341 341 338 335 334 334 337 340 339 340 345 348 349 349 349 349 349 348 348 348 347 347 348 348 347 346 345 344 344 344 343 342 341 341 341 342 342 343 344 345 344 344 344 344 344 343 341 340 339 338 338 337 337 336 333 332 332 332 331 330 328 327 326 325 324 324 323 323 322 321 321 321 320
323 323 324 324 325 324 323 325 329 335 341 343 342 342 341 340 340 339 341 343 341 340 342 345 346 347 348 348 347 348 348 348 348 348 348 348 347 346 345 344 343 344 343 342 342 341 341 342 342 343 343 344 344 344 344 344 344 343 342 340 339 339 338 338 337 335 333 331 331 331 331 330 329 327 326 325 325 324 324 323 322 321 321 321 321
322 322 323 323 324 325 324 324 323 327 335 340 341 341 341 342 341 339 339 340 339 340 342 342 341 342 346 347 347 347 347 348 348 348 348 348 347 346 345 345 344 344 343 342 342 342 341 341 342 342 343 344 344 344 344 344 344 343 342 340 339 338 338 338 337 334 332 331 331 332 332 330 329 328 327 326 325 324 324 323 322 321 321 321 321
321 322 322 323 323 324 324 324 324 323 326 331 337 340 340 340 339 336 334 335 336 338 341 342 340 338 341 346 347 346 347 347 348 348 347 347 347 346 346 345 344 344 343 343 342 342 341 341 341 342 343 343 343 343 343 344 344 343 343 341 340 339 338 338 338 334 331 330 331 331 331 331 330 329 328 327 326 325 324 323 322 322 322 321 321
319 320 321 321 322 323 323 324 324 324 323 325 333 338 339 340 339 336 335 337 339 340 341 341 340 337 338 342 346 347 347 347 347 347 347 347 347 346 346 345 345 344 344 343 343 342 341 341 341 342 342 342 343 342 343 343 343 343 343 342 341 340 338 337 338 336 331 330 331 331 331 331 330 329 328 327 326 325 324 324 323 322 323 322 321
317 318 319 320 321 322 322 323 323 324 323 323 328 334 336 338 339 339 339 339 340 341 342 341 340 338 336 339 343 346 347 347 347 347 346 346 346 346 346 345 345 344 343 343 343 342 342 341 341 342 342 342 342 342 342 342 343 343 344 343 341 340 339 337 337 336 333 330 330 331 330 330 330 330 328 327 327 326 325 324 323 323 323 323 321
317 317 318 318 319 320 321 322 322 323 324 323 325 330 332 332 333 336 339 339 338 338 339 339 338 337 337 338 341 344 346 347 347 347 346 346 346 346 345 345 345 343 343 343 343 342 342 341 341 342 342 342 342 342 342 342 343 344 343 343 341 341 339 337 336 336 334 331 330 331 331 330 330 330 329 328 327 326 326 325 324 323 323 323 322
317 317 317 318 318 319 319 320 321 322 323 323 324 327 331 331 330 332 336 338 338 337 337 337 338 338 339 338 338 341 346 347 347 347 346 345 346 346 345 346 345 344 344 343 343 342 342 342 341 341 341 342 342 342 342 342 343 343 343 342 342 341 339 338 337 336 335 333 331 330 330 330 330 331 331 329 327 326 326 325 325 324 324 324 323
317 317 317 317 317 318 318 319 320 321 322 323 323 324 328 332 331 331 334 337 336 336 336 336 337 338 339 338 337 339 344 347 347 347 347 346 346 345 344 345 345 344 344 343 343 343 342 342 342 342 342 342 342 343 343 342 342 342 342 342 341 340 339 338 338 337 335 333 332 331 331 330 331 332 332 331 328 326 326 326 325 325 325 325 324
317 317 317 317 317 317 317 318 319 319 320 322 323 323 324 329 331 331 334 336 336 335 336 336 336 337 337 337 337 337 340 344 346 346 346 347 346 344 344 345 345 344 344 343 343 343 343 342 342 342 342 342 342 342 343 343 342 341 341 341 340 339 339 338 338 337 336 334 332 332 331 330 330 331 333 332 329 327 327 326 325 326 326 325 324
317 317 317 317 317 317 317 316 317 318 319 320 322 323 323 325 329 332 334 336 336 335 335 336 336 336 336 337 338 337 337 341 346 346 345 346 346 344 343 344 345 344 343 343 343 343 343 342 342 342 343 342 342 342 343 343 343 342 341 341 340 339 339 338 337 337 337 335 332 331 331 330 329 329 331 332 330 328 327 327 326 326 327 326 325
317 317 317 317 317 317 317 317 316 316 317 318 320 323 323 322 326 332 336 337 335 334 334 335 336 336 335 336 337 337 335 337 344 347 346 346 346 344 343 344 345 345 345 344 344 344 343 343 342 342 343 343 342 342 343 343 343 342 341 340 340 339 339 338 337 336 336 334 333 332 331 330 328 327 328 330 330 329 328 327 327 327 327 327 326
316 316 316 316 317 317 317 318 318 317 317 318 318 320 323 322 323 330 338 339 337 334 334 335 335 336 336 336 337 337 335 334 340 346 347 347 346 344 342 344 345 345 345 345 344 344 345 344 344 343 343 343 343 342 343 343 343 343 342 341 340 339 338 337 336 336 335 333 333 334 332 330 328 327 327 329 330 329 328 328 328 328 327 327 327
315 315 315 316 316 316 316 316 317 317 317 317 317 318 321 323 322 325 335 340 338 336 336 336 336 337 337 337 337 337 335 333 333 338 343 346 347 344 342 343 345 344 344 344 345 345 345 345 345 345 344 344 344 343 344 343 343 342 342 341 340 339 337 336 334 334 334 332 332 332 331 329 328 327 326 327 328 329 329 328 328 328 328 327 327
315 315 315 316 315 315 315 315 316 317 317 317 317 317 319 322 323 322 327 336 339 338 337 337 337 337 338 338 337 336 334 332 331 333 336 339 343 344 343 342 343 343 343 343 344 345 346 345 346 346 345 344 344 344 345 344 343 342 342 341 340 338 336 335 334 333 332 332 331 331 330 329 328 327 326 325 326 327 328 328 328 328 328 328 327
314 314 315 315 315 314 314 314 314 315 316 316 317 317 318 321 323 322 322 330 339 339 338 337 336 336 337 336 335 334 334 332 332 335 336 336 338 342 343 343 343 342 343 344 344 344 345 345 345 345 345 345 344 344 344 344 343 342 342 341 340 338 336 335 335 333 332 332 332 331 330 329 329 327 326 326 325 326 327 328 328 328 328 328 328
313 314 315 315 315 314 314 314 314 314 315 316 316 317 317 319 322 323 322 326 336 339 338 337 336 335 334 334 333 333 333 334 334 336 338 340 341 342 343 343 342 342 343 343 343 343 344 345 344 345 345 345 345 344 344 343 343 342 342 341 340 338 336 335 335 334 333 332 332 332 331 331 330 329 328 327 327 326 326 327 328 328 327 327 327
314 314 315 315 315 314 314 315 315 315 315 315 315 316 316 317 320 323 322 323 333 340 338 337 336 335 333 333 333 332 333 335 335 335 337 341 343 342 341 339 339 342 344 342 340 340 342 344 344 344 345 345 345 345 344 343 343 342 342 341 339 338 337 336 335 335 334 334 333 332 332 332 331 331 330 329 329 328 327 327 327 327 327 327 327
314 315 315 315 314 314 314 314 315 315 314 315 315 315 315 316 318 322 322 322 329 338 339 337 336 335 334 334 334 332 332 334 335 335 336 339 341 342 340 338 337 339 340 340 340 341 343 344 344 344 344 343 344 344 344 343 343 342 342 341 339 338 337 336 335 335 334 335 334 333 333 333 332 332 331 330 330 329 328 328 327 327 327 326 326
314 315 315 315 314 314 314 314 314 314 314 314 314 314 315 315 317 321 322 321 326 336 339 337 336 336 336 335 335 333 333 333 334 336 337 338 339 340 341 340 339 337 336 338 340 340 341 342 342 342 343 343 343 343 343 343 342 342 341 341 339 339 338 336 335 335 335 335 335 335 334 334 333 332 332 331 330 330 329 328 327 327 327 326 326
314 314 315 315 315 314 314 314 314 314 314 314 314 314 315 316 317 320 322 322 326 336 339 338 337 337 337 336 336 334 332 332 333 335 337 337 337 338 340 340 340 339 338 338 336 334 334 334 331 331 334 336 337 338 338 338 339 339 339 339 339 339 337 335 334 334 334 334 334 334 334 334 333 332 332 331 331 330 330 329 328 327 327 326 326
313 313 314 315 315 315 315 315 315 315 314 314 314 314 316 317 318 319 320 321 326 334 338 338 338 337 337 337 336 334 332 332 334 334 335 335 335 336 336 337 338 339 339 337 332 329 329 329 327 326 327 328 328 330 332 332 333 333 334 335 335 335 335 333 332 332 333 333 332 333 334 334 333 333 331 330 330 330 330 329 328 327 327 326 326
311 312 313 314 315 315 315 315 315 315 315 315 315 315 316 317 317 318 319 320 325 333 337 337 337 338 338 338 338 337 335 334 332 331 333 335 334 333 332 329 331 337 340 338 332 329 329 328 327 327 329 328 327 329 331 331 331 330 331 331 331 331 332 331 331 332 332 331 331 331 332 332 332 333 331 330 329 329 329 329 329 328 327 326 325
310 310 311 312 313 314 315 315 315 315 315 315 315 316 317 318 318 318 320 321 324 330 335 337 337 337 338 338 338 339 338 334 330 331 334 334 332 331 332 333 335 338 341 340 335 331 331 330 329 331 333 334 333 333 334 333 332 332 332 332 331 331 331 330 330 330 329 329 329 330 330 330 331 331 331 330 330 329 328 328 328 328 327 327 326
309 308 308 309 309 310 312 315 316 316 315 316 316 317 318 319 320 321 322 323 323 327 332 336 337 337 338 338 338 337 336 334 332 332 333 333 331 332 335 338 339 339 339 337 334 333 334 334 334 336 337 337 337 337 337 336 335 335 334 334 334 333 332 331 330 328 327 327 328 328 329 329 330 330 330 330 330 329 328 327 327 327 326 326 325
307 306 306 306 307 308 312 316 317 316 316 317 318 318 319 321 322 323 325 326 326 325 326 329 332 334 335 336 337 337 336 334 333 332 332 332 333 334 336 337 337 337 337 335 331 331 333 334 335 336 336 336 336 336 336 336 335 334 334 334 334 333 333 332 330 329 328 327 327 327 328 328 328 329 329 329 329 328 327 327 326 326 325 325 324
306 305 304 304 306 309 313 316 317 318 318 319 319 319 321 322 322 323 324 325 324 323 321 322 324 326 327 329 333 337 336 334 332 332 332 332 334 336 336 335 335 335 336 335 332 331 332 334 335 335 335 334 334 335 335 334 334 333 333 333 333 333 333 332 332 331 330 329 328 328 328 328 328 328 328 328 327 326 325 325 325 324 324 324 324
305 303 303 303 305 309 311 312 313 316 320 321 320 320 322 322 322 322 323 324 324 324 323 323 324 324 323 323 325 330 332 332 331 331 331 332 335 336 334 331 328 327 329 331 332 332 332 333 334 334 333 333 334 334 334 334 333 332 333 333 333 333 333 333 333 333 332 331 330 329 328 328 328 328 327 327 326 325 324 324 324 324 323 323 323
304 303 302 302 304 306 307 308 309 313 319 322 321 321 322 322 322 322 323 323 323 323 323 323 323 323 322 322 323 325 325 325 326 326 326 328 331 332 329 326 324 324 325 329 331 331 330 330 331 332 332 333 334 334 334 334 334 334 333 333 333 333 332 332 332 332 331 331 331 330 330 329 328 328 328 327 326 325 325 324 324 323 323 323 322
304 302 301 301 302 304 305 305 306 309 314 318 318 318 320 322 323 323 322 321 321 322 322 322 323 323 322 322 324 324 323 323 325 326 324 324 326 327 326 325 325 325 327 329 330 330 330 330 331 331 332 333 333 333 333 334 334 333 333 333 333 332 332 332 331 331 330 330 330 330 330 329 329 328 327 326 326 325 325 324 324 323 322 322 321
304 302 300 300 301 302 303 303 303 305 308 311 312 312 314 318 320 321 321 321 321 320 319 318 319 320 319 320 322 324 323 322 324 326 326 325 326 327 327 327 328 328 328 328 329 329 330 331 331 331 332 332 332 332 332 333 333 332 332 332 332 332 332 332 332 332 331 331 331 331 331 330 329 328 327 327 326 325 324 324 323 322 320 320 318
304 302 301 299 300 300 301 301 302 302 303 305 307 307 308 310 313 315 318 320 319 317 315 313 312 312 313 315 319 322 323 322 322 323 324 324 324 325 325 325 326 327 327 327 329 329 329 329 329 328 328 329 329 330 330 330 330 330 330 331 331 331 331 331 332 332 332 331 331 330 330 329 329 328 328 326 325 324 324 323 322 321 319 318 317
303 303 301 300 299 299 300 300 300 300 300 301 303 304 305 306 307 308 310 313 315 314 313 311 309 308 309 313 317 319 322 322 322 322 321 320 320 322 323 323 324 325 324 325 327 328 327 327 327 327 328 328 328 328 328 328 329 329 329 330 330 330 330 330 331 331 331 331 330 330 330 329 328 328 327 326 325 324 323 322 322 321 319 318 317
302 302 301 300 299 299 299 299 299 299 299 299 300 301 302 303 303 304 304 305 307 309 310 309 306 305 307 312 315 317 319 319 320 320 320 319 319 321 321 321 322 323 323 323 324 325 325 325 325 326 326 326 326 326 327 327 327 328 328 328 329 329 329 328 328 328 328 328 328 327 327 326 325 324 324 323 322 322 321 320 320 320 318 317 317
302 301 301 301 300 299 299 298 298 298 298 298 298 298 299 300 300 300 300 301 301 302 303 303 303 303 304 307 310 311 311 312 313 314 315 316 316 316 316 316 316 317 317 317 318 318 319 320 320 321 321 321 321 322 322 322 323 323 323 324 325 325 325 325 325 325 324 324 323 323 322 321 320 320 320 320 319 319 319 319 319 318 316 315 315
302 302 301 300 300 299 299 298 298 298 298 297 297 297 297 298 298 298 298 298 298 298 298 299 300 300 300 302 304 305 305 306 307 309 310 310 311 311 311 311 312 312 312 312 313 314 315 315 316 316 316 316 317 317 317 317 318 318 318 318 319 319 319 319 319 319 319 319 319 319 318 318 318 317 317 317 317 317 317 316 316 314 313 312 312
302 302 301 300 300 299 299 298 298 298 298 297 297 297 296 296 296 296 296 296 296 296 296 296 297 297 298 298 299 300 300 300 302 304 305 306 307 307 307 307 307 308 308 309 309 310 311 311 311 311 312 312 312 313 313 313 313 313 313 313 313 313 314 314 314 314 315 315 315 315 315 315 315 315 314 314 314 314 313 313 313 312 311 310 310
302 302 301 301 300 299 299 298 298 298 298 297 297 297 296 296 295 295 295 295 295 295 295 294 295 295 295 296 296 297 297 297 298 299 300 301 302 303 303 303 303 303 303 304 305 306 306 306 306 306 307 308 308 308 309 309 309 310 309 309 309 309 310 310 311 311 311 311 311 311 311 311 311 311 311 311 310 310 310 310 310 310 309 309 309
302 301 301 301 300 299 298 298 298 297 297 297 297 297 297 296 295 295 294 294 294 294 294 293 293 293 294 294 294 294 294 295 295 295 296 297 298 299 299 299 299 299 300 300 302 302 303 303 302 302 303 303 304 305 306 306 307 307 307 307 307 307 308 308 309 309 309 309 310 309 309 309 309 308 308 308 308 308 308 308 308 308 307 307 307
302 302 301 301 300 299 298 298 297 297 297 296 296 297 297 296 296 295 295 294 294 294 293 293 292 292 292 293 293 293 293 293 293 294 294 294 295 295 296 296 296 297 297 298 299 300 300 301 301 301 301 301 302 302 302 303 303 304 304 305 305 306 306 307 307 307 307 308 308 308 308 307 307 306 306 306 306 306 306 306 306 305 305 305 305
302 302 301 301 301 300 299 298 297 297 297 296 296 296 296 296 296 295 295 295 294 294 293 293 292 292 292 292 292 292 292 292 292 293 293 293 293 293 294 294 294 295 295 295 296 296 297 298 299 299 299 299 299 300 300 300 301 301 301 302 303 303 303 304 304 305 305 306 306 306 306 306 305 305 304 304 304 304 304 304 304 304 303 303 303
301 301 301 301 301 300 300 298 297 297 297 296 296 296 295 296 296 295 295 295 294 294 293 293 292 292 292 291 291 291 291 291 292 292 292 292 293 293 293 293 293 293 293 293 293 293 294 295 296 297 297 297 297 298 298 299 300 300 300 300 301 302 302 302 302 302 303 303 304 304 304 304 304 304 303 303 302 302 302 302 302 302 302 302 301
300 300 301 301 300 300 300 299 298 297 297 296 296 296 295 295 295 295 294 294 294 293 293 292 292 292 292 291 291 291 291 290 290 290 291 291 292 292 293 292 292 291 291 291 291 291 292 293 295 296 297 297 297 297 297 298 299 299 300 300 301 302 302 302 302 301 301 301 302 302 302 302 302 302 302 301 301 301 301 301 301 301 301 300 300
300 300 300 301 300 299 299 299 298 298 297 297 297 296 296 295 295 294 294 294 293 293 292 292 292 292 291 291 291 291 291 291 291 291 291 291 292 292 292 292 292 291 291 291 291 291 291 292 294 295 296 297 297 297 297 297 298 299 300 301 301 302 302 302 302 302 301 301 301 301 300 300 300 300 300 300 300 300 300 300 300 300 300 299 299
Wind_Speed
16 19 18 19 22 26 28 29 29 30 30 28 26 28 31 31 30 27 26 32 35 36 35 34 35 35 35 34 33 33 33 31 31 31 29 29 29 28 28 27 26 25 24 23 22 23 24 25 25 25 24 23 22 22 21 21 21 19 17 15 14 14 11 9 8 4 9 15 18 21 25 26 25 26 26 25 24 25 27 28 26 25 25 25 26
14 16 16 17 20 24 26 26 26 28 30 29 28 28 29 31 30 30 29 29 34 36 36 35 35 35 35 35 34 34 34 33 32 32 31 30 30 30 30 29 28 27 27 26 24 24 24 26 26 25 24 24 23 23 22 22 20 19 18 15 13 15 14 12 11 7 9 14 16 18 25 27 25 25 27 26 26 26 28 29 26 25 26 26 26
10 12 14 17 19 22 25 25 26 28 30 32 32 31 32 32 32 31 34 33 34 35 36 36 36 35 35 36 36 35 35 35 34 34 34 33 31 31 31 31 30 29 29 28 26 25 26 27 27 26 25 25 25 24 23 22 22 21 20 18 15 15 16 15 14 10 11 16 16 17 24 26 24 26 27 26 25 26 28 28 26 25 26 26 26
8 10 13 16 17 20 23 26 27 27 29 32 33 34 35 34 33 33 37 40 36 35 35 35 34 35 36 36 36 36 36 36 36 36 36 35 33 32 32 32 32 31 30 29 28 28 27 28 28 27 27 27 27 26 25 24 24 23 22 20 19 17 17 18 17 13 11 16 18 17 21 24 23 25 27 25 24 26 28 28 26 25 26 26 27
10 11 13 15 17 19 21 25 28 30 31 32 33 35 37 35 33 35 38 42 39 36 36 35 33 33 34 36 36 37 37 37 37 37 37 37 36 34 34 34 33 33 32 31 30 29 28 28 28 28 28 28 28 28 27 25 24 24 23 21 21 20 18 19 19 16 12 14 18 18 21 24 22 23 28 27 24 25 27 27 26 26 25 25 27
12 14 15 15 16 18 20 23 27 31 34 35 36 35 35 35 34 35 37 42 43 38 37 36 35 35 35 36 36 37 38 38 38 38 38 37 36 35 34 35 34 33 33 32 31 30 30 29 28 29 29 29 29 28 27 27 25 24 24 22 22 22 21 20 20 20 17 15 17 19 21 25 23 22 27 30 26 25 27 26 26 26 27 26 26
14 15 17 18 18 19 20 22 24 28 33 36 37 36 34 34 35 34 36 41 45 41 37 37 37 37 37 37 38 37 38 39 39 39 38 37 37 36 35 35 35 34 33 33 32 31 31 30 30 30 31 31 30 28 27 27 26 25 24 23 23 23 23 23 22 22 20 17 17 19 22 24 25 23 25 30 29 27 29 28 25 26 28 28 29
16 16 17 19 20 21 21 22 23 26 30 32 33 35 33 32 35 37 37 41 45 41 35 35 37 38 38 37 39 39 38 38 39 39 39 38 38 37 36 36 35 34 33 33 33 32 32 32 31 31 32 32 31 30 29 28 27 27 26 24 24 24 23 24 24 23 23 20 18 19 21 22 25 24 24 29 29 27 30 31 28 27 28 29 30
16 17 18 19 21 22 23 23 24 25 26 27 30 34 35 32 32 36 40 44 47 41 34 31 32 35 37 37 37 38 38 37 38 40 40 39 39 38 37 37 36 35 34 33 33 33 33 33 33 33 33 33 32 31 31 31 30 30 29 27 26 25 23 23 24 23 24 22 19 19 21 21 25 26 25 30 32 29 29 30 28 28 28 28 30
17 18 19 19 20 22 23 25 26 26 25 26 28 32 34 33 33 34 37 41 43 41 38 34 30 31 34 36 37 38 37 37 39 41 42 41 41 39 38 38 38 36 36 35 34 34 34 34 34 34 33 33 34 34 33 33 33 32 32 31 30 28 26 25 24 24 24 24 22 21 20 21 26 29 27 29 31 30 29 29 28 27 26 25 27
17 18 20 20 21 22 24 24 25 26 26 26 28 29 31 34 37 36 34 33 33 32 31 32 32 31 32 34 37 38 38 38 40 43 44 44 42 41 39 40 40 39 37 36 35 35 34 34 34 34 34 33 34 35 36 36 36 34 34 34 32 31 31 29 27 26 25 24 24 23 22 22 25 29 28 27 29 31 31 30 29 27 25 23 21
20 20 20 20 22 23 24 25 25 26 26 25 28 31 32 35 38 37 32 28 27 25 24 26 29 31 33 34 36 38 38 41 43 45 48 48 45 43 42 42 42 41 39 37 36 36 35 34 33 33 35 36 34 34 36 37 38 38 36 35 33 32 33 33 30 29 28 26 25 25 26 23 23 28 30 28 28 31 32 31 31 29 27 25 23
22 23 23 23 23 23 24 25 25 27 27 26 25 29 33 35 35 34 32 28 26 25 26 28 30 32 34 37 37 37 38 41 45 48 51 51 49 45 44 44 44 43 41 39 37 37 36 35 34 32 33 35 35 35 35 37 39 40 38 36 35 34 34 34 32 29 28 29 29 27 27 27 25 28 32 32 29 29 31 31 32 31 28 28 29
22 23 24 24 24 25 25 26 27 27 28 28 27 26 31 34 33 32 32 29 26 25 26 27 29 30 33 38 40 38 39 42 45 49 51 52 53 50 44 42 43 43 43 43 40 39 39 37 36 36 32 31 34 36 36 36 38 40 41 40 39 38 36 35 34 31 30 32 34 31 29 29 30 30 31 33 33 31 31 31 31 31 32 32 31
23 24 25 25 25 26 27 28 28 28 28 28 28 28 29 32 34 33 32 31 28 28 28 28 29 30 32 38 42 39 38 41 43 48 51 51 53 53 45 40 41 41 41 43 42 40 40 38 37 37 35 31 32 35 36 37 38 39 41 41 41 41 40 38 38 36 34 35 36 34 29 29 30 29 28 32 38 38 34 32 31 30 30 30 29
24 24 25 26 27 28 28 28 28 29 29 28 29 30 29 31 34 34 33 33 33 30 29 29 31 31 32 36 43 43 40 42 43 46 49 51 53 54 47 39 37 39 39 40 42 40 39 38 37 36 36 35 35 35 36 36 37 38 39 40 38 38 39 40 39 38 35 33 34 33 30 29 29 27 23 26 35 39 34 30 31 29 26 24 24
25 26 26 28 30 30 29 28 27 27 28 29 30 31 31 30 33 36 34 33 33 32 31 31 33 34 34 34 37 40 40 44 48 49 50 52 54 53 48 39 34 37 38 38 40 40 39 39 38 36 37 39 41 40 38 35 36 37 38 38 35 34 37 37 36 37 37 35 33 33 32 31 32 30 23 19 26 34 33 29 29 29 25 20 19
27 28 29 30 31 32 32 32 30 28 29 31 31 32 33 31 32 36 37 34 33 36 37 36 36 38 40 39 39 40 43 43 47 52 53 55 55 53 47 40 34 34 35 36 36 37 37 38 40 39 38 41 42 42 39 37 36 35 37 35 32 33 37 35 32 35 37 36 35 34 34 35 36 35 31 23 21 28 34 33 31 30 27 22 20
28 29 32 33 34 35 35 35 34 32 32 32 32 33 34 33 32 34 38 38 37 38 40 39 38 37 38 40 42 42 43 44 43 48 52 54 56 53 46 40 35 32 32 33 32 33 34 36 39 40 40 40 41 40 40 39 37 35 35 33 31 35 39 35 32 34 34 35 37 38 38 39 39 39 38 33 26 25 32 35 33 32 29 26 24
29 31 33 34 36 37 38 38 37 33 31 31 33 34 34 34 34 32 36 42 42 40 40 40 37 34 33 35 35 35 36 38 39 41 49 52 53 52 45 37 35 32 31 32 31 30 32 34 39 43 42 39 38 39 39 40 40 37 34 33 34 37 35 30 30 34 33 35 38 40 41 42 41 40 40 40 36 31 30 33 34 34 32 29 28
31 32 34 35 36 37 38 40 40 37 34 32 33 35 34 34 36 33 33 41 44 41 39 38 37 36 38 39 36 32 30 26 30 29 40 52 52 50 45 38 36 33 31 31 31 31 32 34 37 43 45 42 40 38 38 41 42 40 37 38 39 36 28 25 28 31 31 33 35 37 39 39 39 39 39 41 41 38 35 34 34 35 34 32 30
31 33 36 37 38 36 37 40 41 40 38 33 32 35 36 34 36 36 33 34 39 40 38 37 37 38 40 40 35 29 29 22 20 25 23 41 50 50 45 41 40 36 32 30 31 32 35 36 38 42 47 46 43 39 37 39 42 42 39 40 39 32 25 25 27 28 29 30 30 32 34 34 35 37 38 39 41 41 39 38 38 37 36 35 32
31 34 36 38 38 36 36 38 39 39 39 36 31 32 34 34 34 36 36 32 33 38 39 38 36 35 35 35 32 30 30 26 18 20 17 23 41 49 48 45 42 37 32 31 33 34 35 37 38 39 43 47 47 44 40 36 39 41 40 38 37 33 27 25 25 26 28 28 26 27 30 31 32 34 36 38 39 39 39 39 40 40 38 38 37
30 32 35 37 36 34 34 34 36 38 38 36 32 30 32 35 34 34 37 34 30 33 36 37 34 31 31 32 33 34 33 29 26 23 18 19 34 48 52 48 42 36 30 27 28 30 30 32 35 36 38 43 47 47 42 37 37 39 39 37 36 34 31 29 27 26 26 27 28 29 29 30 31 31 32 33 33 35 38 39 39 41 43 42 42
30 31 33 35 33 31 31 31 32 33 33 32 31 30 31 34 34 33 35 35 31 30 33 35 32 29 30 31 31 31 31 28 27 29 25 21 30 45 52 47 40 37 32 25 21 24 26 27 31 35 37 40 42 44 43 40 40 41 39 37 36 34 33 33 31 27 26 27 29 29 29 29 30 30 30 29 29 30 34 36 38 40 43 43 44
29 32 33 32 30 28 28 28 28 28 29 29 31 31 30 33 35 33 33 35 33 29 30 33 33 30 29 30 28 27 27 27 28 30 28 23 25 38 47 44 38 34 31 25 19 19 24 29 31 34 36 36 36 40 41 41 42 41 38 37 39 38 36 34 31 29 28 28 28 28 29 28 28 28 27 28 30 31 32 33 34 36 39 40 39
29 32 33 29 27 25 25 26 27 26 27 28 30 32 32 33 35 32 31 33 32 28 28 29 30 29 28 27 27 25 27 30 30 31 33 30 26 30 39 44 43 38 33 29 21 15 18 24 27 28 32 33 33 35 37 38 40 40 38 39 42 43 40 37 33 30 29 29 29 28 28 27 28 28 28 29 31 32 32 33 34 34 37 37 35
30 32 34 28 25 23 23 25 27 28 29 29 30 32 32 34 36 34 32 34 31 27 28 27 28 30 30 29 27 24 25 31 33 33 36 37 33 32 35 40 43 44 43 39 28 15 8 4 2 3 11 20 25 28 30 31 34 37 39 40 42 43 41 38 35 33 32 32 30 27 26 26 27 28 30 31 33 33 33 34 35 34 34 33 32
30 31 33 27 22 22 22 23 24 26 28 29 31 32 31 32 34 33 34 38 36 30 30 29 29 33 34 34 32 26 24 32 38 39 41 42 40 38 38 38 37 42 47 41 23 6 3 8 13 13 7 2 9 16 21 23 25 29 34 37 38 38 38 36 35 36 36 34 30 28 28 26 25 26 28 28 31 33 33 33 34 34 33 33 33
29 29 30 26 21 20 20 21 22 23 25 27 29 31 31 34 39 38 36 38 37 34 36 35 34 36 37 38 40 39 37 41 46 46 45 45 44 42 40 37 34 38 45 42 22 5 1 4 8 11 10 9 12 17 20 21 21 22 26 30 31 32 33 34 35 36 36 33 30 30 30 29 28 29 28 28 30 32 32 32 34 34 33 32 31
27 27 26 24 24 24 20 20 21 21 23 25 25 24 25 30 38 41 39 37 36 32 36 38 38 39 39 39 43 47 49 50 50 50 47 44 44 44 41 37 37 41 47 47 35 20 14 13 13 16 19 20 21 22 21 21 22 22 22 24 27 29 30 32 32 32 30 30 31 33 32 32 32 32 31 31 31 29 27 30 33 34 33 31 30
27 27 27 25 28 30 25 22 23 22 22 23 21 20 21 24 28 32 33 32 33 32 33 37 38 41 43 43 43 45 48 48 47 48 47 44 43 43 40 38 40 43 43 41 38 31 26 24 23 25 25 23 22 23 22 21 22 23 23 23 25 27 29 30 28 27 26 27 30 32 33 33 33 33 34 35 32 27 27 29 30 30 31 31 31
28 29 30 30 31 32 28 22 20 20 19 18 17 17 18 16 15 16 15 13 16 16 12 13 19 30 38 43 46 47 48 48 47 45 45 44 44 43 41 39 38 38 36 35 33 31 30 28 26 27 26 24 25 26 25 24 24 23 24 25 25 26 27 28 26 25 26 27 28 30 31 33 33 33 34 36 33 29 30 32 32 30 28 27 28
28 30 34 34 31 29 27 23 17 15 17 16 14 16 13 7 6 7 4 5 7 7 13 18 12 3 7 17 31 43 46 46 44 43 42 44 44 42 39 36 32 32 35 37 33 29 28 28 28 28 27 26 26 26 25 25 25 25 26 26 27 27 27 26 26 26 28 29 29 28 29 31 32 32 33 34 33 31 29 30 31 29 27 26 28
30 31 36 37 33 29 30 30 25 18 16 13 9 11 11 4 4 6 3 1 1 5 11 17 19 21 22 19 7 22 34 36 36 38 40 43 43 38 33 30 26 26 29 30 27 24 24 24 25 25 24 24 24 25 25 25 25 26 27 26 27 26 26 25 26 26 27 28 28 29 30 30 31 32 33 33 33 31 30 31 31 30 28 29 31
31 31 35 37 33 30 31 33 32 25 15 9 7 2 6 7 3 4 5 4 4 10 13 10 11 15 19 22 18 5 9 17 20 22 25 30 34 31 25 21 20 22 24 22 19 18 19 20 22 23 22 22 22 23 24 25 24 25 26 25 25 25 25 25 26 27 26 26 26 26 29 31 32 33 33 32 32 33 33 33 34 34 34 34 33
31 32 37 39 33 29 30 31 32 31 24 19 20 18 11 9 8 8 10 10 7 10 15 14 11 12 13 15 17 15 8 5 8 9 10 16 21 20 15 11 11 13 15 16 14 13 14 16 19 20 20 21 21 21 23 23 23 23 24 24 24 25 24 25 25 26 26 27 27 27 29 31 32 32 32 32 33 33 33 32 33 35 37 37 34
29 33 39 40 32 27 28 29 30 32 29 26 28 30 25 20 16 14 15 17 14 14 19 20 20 18 14 11 13 14 14 13 14 15 16 17 16 12 8 7 7 6 5 7 10 12 12 13 15 16 17 18 19 18 19 19 20 21 22 23 24 24 24 24 24 24 24 25 27 28 29 29 30 30 31 32 34 34 33 32 32 32 33 33 32
28 32 38 40 34 29 28 28 28 30 30 27 27 28 27 25 23 21 21 20 19 19 22 25 26 24 19 14 10 8 7 9 14 18 20 18 13 7 5 5 8 9 11 13 17 20 21 21 20 20 20 20 19 19 19 19 19 20 20 20 20 21 21 21 21 22 23 24 25 26 26 27 28 29 30 31 32 32 32 32 31 30 29 30 30
27 29 33 37 36 32 30 29 28 28 28 26 25 25 25 25 24 22 21 20 20 21 23 24 25 27 28 24 16 7 3 5 9 13 14 12 9 10 9 7 8 11 14 14 15 15 17 16 13 11 11 11 11 12 12 13 13 14 15 15 16 16 16 17 19 20 22 25 27 28 29 30 31 31 31 30 30 30 30 31 31 31 29 29 29
26 28 30 33 33 32 30 30 29 28 27 26 25 24 24 24 22 22 22 22 21 21 22 22 23 28 32 30 25 21 19 19 19 17 14 12 9 8 7 7 7 7 6 4 3 3 2 2 3 4 4 5 5 6 6 7 8 9 10 12 14 15 17 19 21 22 23 24 25 26 26 26 26 26 27 27 26 25 25 25 26 28 27 26 28
25 27 28 29 30 30 29 29 29 28 27 27 27 26 24 24 23 23 24 23 22 22 22 21 22 26 31 31 29 29 28 26 25 24 22 19 18 17 17 16 16 15 14 13 12 11 11 11 11 11 12 12 13 13 13 13 13 12 13 14 15 16 17 17 18 19 19 19 20 20 19 19 19 19 20 21 21 21 22 22 23 24 24 24 26
23 25 27 28 28 27 27 27 27 27 27 28 28 28 27 25 24 24 24 24 23 22 21 20 20 23 28 31 32 32 31 29 27 26 24 23 22 20 19 18 17 16 15 14 14 13 13 13 13 14 14 14 15 15 15 15 15 14 14 14 14 14 15 15 16 17 18 18 19 20 19 19 19 19 19 20 20 21 22 23 22 22 22 22 22
21 22 24 26 26 25 26 26 26 26 27 27 27 28 28 26 25 24 24 24 24 23 23 22 22 23 25 28 30 31 32 31 30 28 26 26 25 23 21 20 19 18 17 16 14 12 11 11 11 10 9 9 9 9 10 10 11 12 12 13 13 13 13 14 15 16 17 18 20 20 21 21 21 20 20 20 20 20 21 21 21 20 20 20 21
20 20 21 23 24 24 25 25 25 25 26 25 25 26 26 26 25 24 23 23 23 24 24 25 26 26 27 27 28 29 29 30 31 30 28 28 26 25 24 23 22 21 20 19 18 16 16 15 14 13 11 10 9 8 7 7 7 7 8 9 10 11 11 12 13 14 14 15 16 17 17 17 17 18 18 18 17 17 18 19 19 19 20 20 21
19 20 20 20 21 22 23 24 24 24 24 23 23 23 24 24 25 25 25 25 25 25 25 25 26 27 27 27 28 28 28 29 30 30 30 29 28 26 25 25 25 24 23 22 20 19 18 17 17 17 16 15 14 12 11 10 9 8 8 9 10 10 11 12 13 13 13 14 15 15 14 14 14 14 15 15 15 16 17 17 17 18 19 19 19
16 17 18 19 19 20 20 21 23 24 24 24 24 23 22 22 23 24 26 27 28 28 27 27 28 28 28 27 28 28 28 29 30 31 30 30 29 28 27 27 27 27 27 27 25 24 21 19 18 18 18 18 18 17 16 16 15 14 13 12 12 13 13 14 14 13 12 12 12 11 12 12 12 13 14 14 14 14 15 16 16 16 17 17 16
13 13 15 17 17 17 18 18 19 20 21 23 24 24 24 23 23 24 25 26 27 27 27 28 29 30 29 29 28 29 30 30 31 32 32 31 30 30 30 29 28 28 29 30 29 29 27 25 23 22 21 21 21 21 21 21 20 19 18 16 15 14 13 13 13 12 12 11 10 9 9 10 10 11 12 12 12 12 12 13 13 14 14 14 15
13 11 12 14 15 15 16 17 16 16 16 17 18 20 22 23 23 24 24 25 25 25 26 26 26 26 26 27 28 29 29 30 31 32 32 32 31 31 30 29 28 28 29 29 29 28 28 28 27 26 25 25 25 25 24 23 22 22 21 19 17 15 14 13 13 12 11 11 10 9 9 9 9 9 8 9 9 9 9 10 11 11 11 11 12
14 11 11 13 14 14 14 14 14 14 14 14 14 15 16 17 19 20 21 22 23 24 24 25 25 24 23 24 24 25 27 28 29 29 30 30 30 29 29 29 28 28 27 27 26 26 27 28 28 27 26 26 25 25 25 25 24 23 22 20 19 17 16 15 15 14 13 12 11 11 9 7 7 7 6 6 6 6 7 7 8 8 9 10 11
13 13 11 12 14 14 13 13 12 12 12 13 13 14 14 14 14 15 16 17 19 20 21 22 23 24 25 26 26 27 28 28 28 28 28 28 28 28 28 27 27 27 27 27 27 27 27 28 28 27 26 25 24 24 24 24 23 22 21 21 21 20 19 17 17 16 14 14 13 12 11 9 7 6 5 5 4 4 5 5 6 7 8 8 9
Wind_Direction
225 231 229 222 220 222 226 230 233 234 232 230 228 226 224 231 248 252 227 203 195 192 190 191 193 195 194 194 195 198 199 201 202 201 200 201 201 199 199 200 200 200 206 213 214 213 215 217 218 217 213 209 206 207 209 209 210 213 212 213 213 208 203 211 223 194 162 178 182 181 186 184 186 195 196 197 205 210 211 211 212 215 218 219 216
225 227 229 229 228 228 230 233 235 236 235 231 226 224 225 224 233 252 251 222 201 195 193 193 194 195 195 195 196 198 200 201 202 202 201 202 203 201 198 199 201 201 202 208 213 213 214 217 217 215 211 209 206 206 206 205 206 208 206 203 202 203 201 207 220 208 163 172 179 176 179 181 185 192 193 196 202 206 208 210 214 220 222 220 217
238 233 231 234 237 237 236 237 236 233 229 228 224 220 223 225 225 239 255 242 215 200 196 194 195 196 197 198 198 199 201 202 202 203 203 203 203 202 199 198 201 202 201 203 210 214 214 215 216 213 209 206 206 205 203 203 203 202 200 200 201 202 200 204 219 216 178 178 184 177 176 181 187 189 192 199 203 203 206 208 212 220 221 220 221
255 245 238 238 241 241 239 237 235 233 230 226 224 221 221 223 219 225 245 248 228 206 199 197 196 197 198 199 199 200 201 202 203 205 205 203 202 203 201 199 200 203 202 201 208 214 214 214 215 213 209 206 205 204 203 203 201 197 195 196 200 203 200 205 218 220 194 185 189 188 184 186 189 186 188 197 202 203 206 206 208 215 217 218 221
270 261 250 241 237 236 239 240 236 236 238 236 233 228 223 223 220 219 233 246 237 215 202 198 197 198 199 199 200 199 201 202 203 205 206 203 201 202 202 201 201 203 204 202 206 213 215 215 215 214 212 209 206 205 204 203 202 198 194 193 199 203 201 204 212 216 213 199 192 193 192 193 196 190 186 191 196 200 205 205 206 210 213 216 219
273 267 261 253 244 237 234 237 236 236 239 240 240 235 227 224 224 218 223 237 240 224 204 198 197 198 200 201 200 199 200 202 203 204 205 204 201 200 201 202 202 203 204 203 205 212 215 216 216 215 215 212 209 207 203 203 203 199 194 194 199 201 200 203 208 210 216 216 201 193 190 192 197 195 191 191 191 194 199 205 210 211 211 214 217
279 271 268 262 256 247 238 235 236 236 236 237 239 237 231 226 224 220 218 228 237 229 208 199 199 199 201 201 199 200 201 201 203 203 204 203 200 199 200 202 202 204 205 203 206 212 215 217 217 216 216 215 212 208 203 201 204 202 197 196 198 199 201 202 205 205 208 216 210 195 190 193 196 198 195 193 192 194 195 199 209 211 210 213 216
275 269 268 267 263 257 250 242 239 240 240 238 238 240 241 236 228 224 220 224 235 236 218 204 200 201 203 202 199 200 201 201 202 203 203 202 200 198 198 200 201 203 204 204 206 212 214 216 218 218 217 217 215 211 205 201 202 201 198 197 196 199 203 202 203 202 198 206 214 200 193 195 197 199 195 188 190 196 195 196 202 206 209 214 217
276 271 265 263 264 263 259 252 246 244 241 238 239 242 245 245 238 229 224 222 227 230 224 216 210 205 204 203 201 201 200 201 201 201 202 202 200 199 198 199 201 202 203 204 207 211 214 214 216 218 219 218 216 214 210 205 203 200 196 196 196 199 204 206 207 203 193 197 210 204 196 197 196 197 195 190 193 198 196 196 200 203 207 213 217
274 273 270 266 263 262 261 257 251 246 238 235 242 247 246 246 244 235 228 226 224 222 218 218 221 219 213 207 204 203 202 202 203 202 202 202 200 199 199 199 201 202 201 203 206 210 213 214 215 217 219 219 217 217 215 210 207 205 200 198 199 199 201 207 211 207 194 193 202 205 202 202 199 199 201 200 199 198 196 196 198 200 204 212 217
279 271 269 269 267 263 261 260 257 251 242 232 234 240 242 243 242 238 234 231 229 227 221 216 219 227 227 217 207 206 205 204 205 204 203 203 200 199 199 199 201 202 201 201 203 208 212 213 215 216 218 221 219 217 217 214 211 210 208 205 206 204 202 205 212 211 201 194 199 205 208 208 204 203 206 206 201 198 198 198 197 197 202 209 213
294 286 278 273 270 267 265 264 263 261 255 240 226 222 223 227 230 231 232 230 227 229 228 223 221 226 236 233 216 208 208 207 207 207 206 205 202 199 199 199 200 201 202 201 202 206 210 211 212 215 218 221 221 219 218 217 214 213 212 210 211 211 207 206 210 212 206 199 199 206 210 211 207 206 208 208 202 199 199 200 199 199 204 211 212
289 287 285 280 277 275 272 269 267 265 265 260 243 226 221 225 229 233 236 234 231 230 230 229 225 226 240 246 230 214 210 210 209 210 208 205 203 202 201 200 199 199 200 202 202 203 207 209 210 214 217 219 221 222 221 219 216 213 212 211 211 213 212 210 211 214 213 207 204 208 211 210 210 211 210 209 207 202 199 201 203 204 208 215 216
285 281 278 275 274 277 279 276 273 269 267 268 263 247 235 237 241 244 243 240 237 237 235 231 228 228 239 250 243 224 212 211 211 211 210 207 205 204 203 201 201 199 198 200 201 203 205 206 208 212 216 217 220 222 223 221 217 213 211 211 212 213 215 213 211 214 220 217 211 210 212 211 214 216 215 213 213 209 204 203 204 206 213 219 221
288 284 281 277 272 270 270 272 274 273 270 270 269 261 246 239 242 246 245 242 237 235 234 231 230 231 237 248 252 239 218 212 213 211 210 210 208 207 205 204 202 201 200 200 201 203 204 205 206 210 215 219 221 221 221 221 218 214 211 212 214 215 218 218 213 214 221 222 216 212 213 213 215 220 223 220 217 215 213 212 211 212 218 223 225
284 282 281 280 277 270 263 262 267 270 271 269 267 267 256 240 237 240 241 239 237 236 236 234 231 231 233 242 253 248 229 217 216 214 211 211 211 209 206 205 204 203 203 202 202 204 205 204 206 208 213 218 222 222 221 219 216 213 212 213 216 218 222 223 219 217 222 225 221 218 217 215 215 220 225 220 214 213 215 215 214 216 221 225 225
283 281 278 276 276 272 265 259 259 264 270 269 263 264 262 248 236 234 233 231 230 232 236 237 236 233 230 235 249 253 241 225 219 219 216 213 213 212 207 206 207 206 206 205 204 205 206 205 206 208 211 215 219 222 220 216 213 212 212 214 217 221 226 228 224 221 223 226 225 224 222 221 221 225 228 221 212 209 209 209 207 211 219 223 222
288 287 285 282 280 276 271 265 258 255 260 265 263 259 259 256 242 232 227 223 220 225 230 233 235 233 229 230 238 246 248 239 224 219 220 218 215 214 210 208 210 209 207 207 206 206 207 207 208 209 211 214 217 220 219 214 211 212 213 213 214 221 228 229 226 224 224 224 226 226 227 227 228 230 232 232 223 211 209 211 209 209 216 221 221
291 291 291 290 286 281 278 274 266 253 246 253 261 258 256 257 250 235 225 221 219 221 225 228 231 232 233 235 235 235 244 251 239 222 219 218 216 213 211 210 210 209 207 206 207 207 208 210 211 211 213 216 217 219 219 214 211 212 213 211 213 223 229 229 227 226 224 223 224 226 229 231 231 233 234 236 237 225 216 217 214 210 214 220 220
297 294 292 289 286 282 278 277 274 261 246 244 254 259 256 253 254 243 224 218 219 219 220 223 225 228 231 236 238 234 240 259 263 240 222 218 215 210 208 209 208 206 205 205 206 207 208 210 212 214 215 216 217 220 220 216 214 213 211 209 215 223 228 228 228 226 224 224 224 225 229 231 231 233 235 236 240 237 226 220 216 213 214 217 219
299 296 291 286 282 277 275 275 275 270 260 249 248 256 257 250 251 250 230 215 214 216 216 216 218 222 226 228 232 235 237 263 296 279 235 220 215 209 206 209 209 207 206 205 205 206 207 209 212 214 216 216 216 219 221 218 215 212 211 215 220 223 223 223 225 223 221 223 225 225 229 231 230 232 235 236 239 240 234 226 219 216 217 218 220
299 296 293 287 280 275 273 272 271 271 268 257 245 248 255 250 246 250 245 222 209 210 212 210 209 216 224 227 229 227 224 241 311 321 262 225 215 209 207 210 213 212 210 208 206 206 207 208 211 214 215 215 215 217 220 217 212 210 214 220 223 222 219 220 221 220 218 219 221 223 226 229 229 230 232 233 235 237 237 232 224 220 222 224 225
299 295 292 288 281 277 275 271 268 268 267 262 251 246 253 253 244 245 251 238 211 203 206 207 207 211 217 222 224 219 216 229 271 313 299 239 218 212 210 213 215 215 214 212 209 208 208 208 210 213 214 214 214 217 218 214 208 211 218 223 223 219 215 215 215 216 215 215 216 220 222 224 225 226 228 229 230 232 233 234 230 226 226 228 229
297 293 291 286 280 276 274 269 264 262 260 259 258 254 255 258 249 241 246 245 221 200 199 202 204 207 209 214 219 218 220 230 244 257 262 241 222 215 212 213 214 214 220 224 218 215 214 211 211 213 213 213 214 216 217 213 211 217 223 225 222 217 213 214 216 215 213 213 216 220 221 222 223 224 225 227 229 231 231 233 233 230 229 231 231
295 293 290 284 278 275 273 267 260 256 254 256 259 259 258 260 256 244 242 244 230 207 197 197 198 201 205 209 213 215 219 226 232 234 233 230 223 217 213 213 212 211 218 229 229 226 225 220 217 217 216 215 214 214 216 217 219 223 225 223 219 215 214 217 218 216 215 216 219 222 224 225 225 225 227 228 231 232 230 230 232 232 232 233 235
298 299 297 286 277 276 276 272 264 258 255 257 260 258 256 259 258 248 240 242 236 216 199 195 195 197 201 206 207 205 206 209 214 218 219 221 224 220 217 217 217 218 225 230 229 230 229 224 223 222 218 216 214 212 214 218 222 225 224 221 219 218 218 219 218 217 220 223 225 228 230 231 231 229 228 227 228 229 226 224 225 228 228 230 233
306 308 306 293 278 276 276 273 271 266 260 258 258 256 254 255 256 251 242 241 238 219 200 194 193 194 198 202 202 196 193 195 201 207 212 215 216 215 215 217 219 224 235 238 236 241 237 227 225 224 217 212 211 211 213 217 221 223 222 220 220 221 222 223 224 226 229 231 233 235 237 237 235 231 228 225 225 227 226 221 219 221 223 223 225
314 315 315 301 278 272 272 268 266 266 262 257 254 252 249 248 250 249 244 244 240 219 201 196 193 193 196 196 195 192 190 194 198 204 212 215 211 204 204 208 212 218 226 233 238 246 259 259 288 251 209 200 200 204 208 214 219 221 220 220 222 224 226 228 231 233 236 238 239 240 241 240 235 229 226 227 228 228 226 221 219 220 220 217 218
320 321 321 310 282 268 265 261 259 258 258 256 253 251 249 248 251 250 246 248 246 227 207 200 195 195 197 197 195 193 192 200 207 211 214 216 213 206 202 201 205 211 218 224 229 240 7 13 9 1 352 227 203 206 208 215 221 223 223 224 224 225 226 228 230 233 236 238 240 242 243 243 240 234 230 230 231 230 227 223 221 222 220 216 218
326 325 327 322 307 288 270 258 255 253 254 255 255 256 256 255 258 258 253 253 252 234 214 206 201 199 201 202 203 203 204 211 217 219 216 215 215 215 213 208 202 203 210 214 214 205 292 302 311 302 279 243 222 216 211 212 218 223 226 227 226 227 229 230 231 233 235 236 238 241 242 243 245 244 241 238 236 234 230 226 225 224 221 219 220
329 329 329 329 325 314 293 270 262 256 252 253 255 261 265 264 264 263 257 260 265 249 221 208 204 204 206 207 209 211 213 216 219 218 214 214 215 216 218 215 205 200 205 208 207 209 218 220 227 236 230 218 216 217 214 213 217 222 225 226 226 227 230 232 234 235 236 236 238 240 240 241 242 244 244 244 243 239 235 232 229 225 222 222 224
331 332 331 329 328 322 306 281 266 256 250 251 252 261 270 269 268 264 257 262 273 261 230 213 208 210 213 212 210 213 214 215 216 215 212 214 215 215 217 217 208 202 202 202 198 199 205 207 209 216 218 216 221 225 221 218 220 223 225 227 226 225 227 231 234 235 234 236 238 238 239 240 241 242 244 246 247 244 236 233 230 226 225 227 229
335 334 332 331 328 323 314 295 271 255 252 254 250 254 263 265 266 266 269 288 298 283 254 227 212 212 217 216 212 212 213 211 212 212 211 212 214 214 213 212 206 201 200 198 194 194 198 201 207 213 216 218 224 227 226 225 225 225 226 228 229 229 232 236 238 237 237 238 238 238 240 241 242 244 246 247 249 246 237 232 232 231 232 234 236
340 338 338 337 333 329 331 330 314 284 272 266 246 236 245 269 292 284 299 342 337 358 19 16 19 24 261 241 220 213 212 211 210 211 212 212 212 210 206 203 202 202 200 196 193 194 198 203 208 211 213 216 219 221 223 223 224 224 226 228 231 234 236 237 237 237 239 239 237 237 240 240 240 242 245 247 248 247 242 237 237 237 236 238 241
346 345 347 346 342 342 345 344 338 322 295 280 254 221 212 218 307 295 276 229 176 91 52 23 21 33 24 4 299 215 208 205 206 209 212 210 206 198 190 188 190 193 194 192 192 197 203 209 213 214 215 217 217 217 218 220 220 222 225 227 229 231 232 232 232 235 237 237 236 236 238 239 239 239 240 242 243 243 243 243 244 244 241 240 242
351 351 353 351 348 350 351 347 348 352 350 346 0 39 159 144 82 27 38 46 92 104 90 57 31 37 35 25 20 9 204 194 194 200 203 200 192 181 174 174 177 180 184 187 192 201 209 216 220 221 221 221 218 216 218 220 221 223 225 226 228 228 229 230 231 234 235 234 234 236 238 239 239 238 238 238 238 239 240 241 242 244 243 242 242
354 354 356 355 352 355 357 354 357 7 16 21 23 30 51 70 63 55 42 23 26 81 87 78 58 45 44 49 48 42 47 122 154 160 160 165 166 160 155 159 162 167 177 184 190 202 214 218 218 219 223 225 224 223 223 223 226 229 231 233 233 233 234 235 235 236 237 237 239 241 240 239 238 237 236 236 236 237 239 238 237 239 240 241 241
355 356 358 359 357 358 1 1 4 13 19 22 26 31 37 40 43 50 45 33 37 66 76 72 64 54 48 58 72 70 68 83 106 118 122 133 142 137 122 128 135 128 149 189 203 212 222 226 224 226 230 232 233 234 232 231 234 236 238 240 240 240 242 244 244 243 241 240 241 243 242 240 239 239 238 238 237 237 238 237 236 236 237 238 239
353 355 359 2 2 3 5 7 11 17 19 21 24 29 32 34 35 38 43 49 57 66 67 62 56 49 42 45 68 93 96 91 103 116 119 121 130 140 142 168 186 184 187 203 214 220 226 231 233 234 235 237 240 243 243 243 245 247 249 250 250 249 250 250 249 249 248 248 250 252 252 251 250 248 247 245 243 241 240 238 237 236 236 236 237
352 353 357 2 5 5 8 14 18 20 19 20 24 27 30 32 32 30 34 44 52 56 59 58 50 40 35 39 51 78 129 103 101 116 121 124 149 178 188 204 213 199 191 198 208 213 219 224 228 229 233 238 243 246 249 252 255 258 261 263 265 265 264 263 263 261 260 260 261 263 264 264 263 261 259 255 252 247 243 239 238 239 239 238 240
357 356 357 1 5 7 9 14 19 21 22 23 27 30 33 35 35 33 33 36 38 43 50 54 47 39 39 45 54 62 63 61 65 73 82 91 108 121 106 71 49 55 68 71 71 76 69 26 16 6 349 339 332 322 316 308 298 292 289 286 284 285 284 283 280 275 270 267 267 267 267 267 265 262 259 255 251 248 244 240 242 244 244 243 244
5 3 1 1 4 8 10 13 15 18 22 26 28 31 34 38 41 42 42 40 39 39 42 43 40 38 40 46 55 60 57 52 52 54 56 58 61 61 59 54 49 44 38 31 24 16 6 1 356 350 344 338 331 326 324 320 313 307 301 295 290 287 284 281 278 274 270 268 267 267 266 265 263 261 259 257 256 256 254 253 254 254 252 249 247
9 10 10 7 6 7 10 12 14 17 22 26 28 30 34 38 41 43 44 44 43 42 42 40 38 37 39 44 52 56 55 51 50 50 49 50 50 49 47 46 46 44 37 28 18 7 358 352 345 338 335 331 325 320 318 316 312 311 309 303 297 291 286 281 278 276 274 274 273 271 271 272 271 270 269 268 266 264 263 262 261 258 253 248 246
14 14 15 14 14 13 12 13 16 20 23 27 30 32 34 37 39 40 42 43 43 42 41 40 39 39 40 43 48 52 53 52 52 51 51 52 53 52 52 52 53 54 51 47 43 38 31 21 10 358 352 349 342 333 328 326 325 327 327 323 315 309 303 298 294 290 286 284 284 283 281 280 280 277 274 270 265 261 259 257 255 253 251 248 247
21 19 18 19 21 21 20 18 19 21 23 25 28 31 34 37 38 39 41 43 44 44 43 42 43 44 43 43 47 50 51 52 52 52 52 53 54 55 56 57 58 58 58 59 61 64 62 56 50 44 39 35 31 25 19 13 4 358 355 349 339 330 320 310 303 299 294 291 290 289 286 283 279 276 273 270 264 259 255 252 250 248 247 246 245
29 26 24 25 27 27 27 27 27 26 25 25 26 28 32 36 39 41 43 45 47 48 48 46 46 47 47 47 49 51 52 52 53 53 52 52 53 54 55 56 57 58 60 61 62 64 64 63 58 53 48 44 41 37 34 30 23 15 11 2 349 337 323 310 302 299 298 298 296 292 290 288 284 279 275 271 266 261 257 255 252 249 247 246 245
37 35 29 29 31 30 29 31 33 33 32 31 30 29 30 34 38 42 44 46 48 50 50 50 49 50 51 51 51 53 54 55 56 56 54 53 53 53 54 56 57 58 60 61 62 61 61 62 61 59 56 53 50 46 43 39 33 27 21 11 358 345 331 320 312 304 299 301 302 300 297 294 288 283 279 275 270 264 259 256 255 253 251 250 248
37 46 38 31 32 34 32 31 32 34 36 36 37 37 36 36 38 40 42 45 47 48 48 49 50 51 52 53 53 54 56 57 58 59 58 56 54 54 54 54 55 56 58 58 58 58 59 59 60 62 61 58 54 50 46 43 38 33 28 21 13 2 351 341 334 324 313 308 308 311 308 301 293 288 282 277 273 268 261 256 255 252 251 250 246
22 46 53 42 34 35 38 37 34 33 35 36 36 37 38 39 40 42 44 47 49 49 49 50 50 49 50 52 53 54 55 56 58 60 59 58 58 57 56 54 54 54 54 53 52 53 53 54 55 56 56 55 53 49 46 44 40 34 28 23 18 12 6 2 359 353 343 331 321 316 310 301 296 296 291 283 279 275 264 256 253 249 245 243 237
9 24 50 54 43 34 34 38 37 34 36 37 35 34 36 37 38 40 43 45 47 48 51 52 52 51 51 51 51 53 54 54 55 57 57 57 58 59 58 57 55 53 52 51 49 48 48 48 49 49 49 49 49 46 43 41 39 34 29 24 21 18 17 15 13 11 8 360 350 342 333 320 308 307 304 294 286 276 263 257 257 251 244 240 233
9 10 26 50 51 40 32 34 34 33 35 37 37 36 37 36 35 36 38 40 41 42 44 47 48 49 49 49 50 51 52 52 53 55 55 54 54 54 55 54 53 52 50 49 48 46 44 43 43 44 43 42 42 42 39 38 36 34 30 27 24 23 23 22 20 18 17 13 7 2 359 358 357 354 343 332 322 303 278 267 264 254 243 237 231